星链-1283 (STARLINK-1283 )

导读 | 星芒AI

STARLINK-1283 是 SpaceX Starlink 项目中的一颗低轨通信卫星,属于第 12 批发射的 Starlink 卫星群。该卫星于 2021 年 5 月 28 日由猎鹰 9 号火箭从美国卡纳维拉尔角发射升空。它运行在约 550 公里的高度,旨在为全球提供高速互联网服务。STARLINK-1283 采用先进的推进系统和激光通信技术,具备自动避障能力,有助于减少太空碎片风险。作为 Starlink 网络的一部分,它支持偏远地区的宽带接入,推动全球互联网覆盖的扩展。

基本信息
目录编号:
45389
目录名称:
STARLINK-1283
国际标识:
2020-019AF
轨道中心:
EARTH
卫星名称:
星链-1283
卫星全名:
星链-1283 (STARLINK-1283 )
卫星状态:
在轨 (已飞行2098 天)
发射日期:
2020-03-18 UTC
国别 :
美国 (US)
星等 :
--
轨道信息
数据来源 国际轨道数据
星历时间: 2025-12-15T08:00:04+0800
19小时前
查看轨道信息
半长轴: 6826.358km
偏心率: 0.0000668
轨道倾角: 53.051°
近地点辐角 116.792°
升交点赤经 154.810°
平近点角 343.276°
近地点: 447.766km
远地点: 448.68km
周期: 93.550分钟
每日圈数: 15.392857
详细信息
固有亮度:
5
最大亮度:
2.5
卫星平台:
Starlink V1.0
覆盖范围:
全球
运营商:
太空探索技术公司
运营商所在国:
美国
制造商(研发单位):
太空探索技术公司
制造商所在国:
美国
使用方式:
暂无
卫星简介
星链(Starlink)计划是由太空探索技术公司(SpaceX)提出的一个巨型低轨卫星互联网星座项目,计划在2019年至2024年间在太空搭建由约1.2万颗卫星组成的“星链”网络,其中1584颗将部署在地球上空550千米处的近地轨道,并从2020年开始工作。该卫星仍在工作。
2D轨道图
3D轨道图
轨道高度分析图
轨道倾角分析图
轨道综合分析图
查看轨道综合分析图